Weather History for Williams, AZ

Change the Weather History Date:

Friday, October 25, 2013

  Actual Average (KFLG) Record (KFLG)
Temperature  
Mean Temperature 50 °F 44 °F  
Max Temperature 64 °F 59 °F 78 °F (1959)
Min Temperature 35 °F 29 °F 11 °F (1975)
Degree Days  
Heating Degree Days 16 21  
Month to date heating degree days 432  
Since 1 July heating degree days 749  
Cooling Degree Days 0 0  
Month to date cooling degree days 0  
Year to date cooling degree days 117  
Moisture  
Dew Point 25 °F    
Average Humidity 43    
Maximum Humidity 71    
Minimum Humidity 18    
Precipitation  
Precipitation 0.00 in 0.05 in 1.48 in (1998)
Month to date precipitation 1.34  
Year to date precipitation 17.91  
Snow  
Snow 0.00 in 0.10 in 9.10 in (1972)
Month to date snowfall 0.9  
Since 1 July snowfall 0.9  
Snow Depth -    
Sea Level Pressure  
Sea Level Pressure 30.33 in    
Wind  
Wind Speed 8 mph (SE)    
Max Wind Speed 13 mph    
Max Gust Speed 18 mph    
Visibility 10 miles    
Events      
T = Trace of Precipitation, MM = Missing Value Source: NWS Daily Summary

Daily Weather History Graph

Daily Weather History Graph

Search for Another Location

Airport:

Trip Planner

Search our weather history database for the weather conditions in past years. The results will help you decide how hot, cold, wet, or windy it might be!

Date:

Astronomy

Oct. 25, 2013 Rise Set
Actual Time 6:44 AM MST 5:41 PM MST
Civil Twilight 6:18 AM MST 6:07 PM MST
Nautical Twilight 5:48 AM MST 6:36 PM MST
Astronomical Twilight 5:18 AM MST 7:06 PM MST
Moon 11:07 PM MST (10/25) 12:23 PM MST (10/25)
Length of Visible Light 11h 48m
Length of Day
10h 57m
Waning Gibbous, 61% of the Moon is Illuminated
Oct 25
Waning Gibbous
Oct 26
Last Quarter
Nov 3
New
Nov 9
First Quarter
Nov 17
Full

Hourly Weather History & Observations

Time (MST) Temp. Windchill Dew Point Humidity Pressure Visibility Wind Dir Wind Speed Gust Speed Precip Events Conditions
12:15 AM 39.2 °F 33.0 °F 17.6 °F 42% 30.28 in 10.0 mi SSE 9.2 mph - N/A   Clear
12:35 AM 39.2 °F 32.5 °F 19.4 °F 45% 30.28 in 10.0 mi SSE 10.4 mph - N/A   Clear
12:55 AM 39.2 °F 33.0 °F 17.6 °F 42% 30.29 in 10.0 mi SSE 9.2 mph - N/A   Clear
1:15 AM 39.2 °F 32.0 °F 19.4 °F 45% 30.29 in 10.0 mi SSE 11.5 mph - N/A   Clear
1:35 AM 37.4 °F 29.8 °F 17.6 °F 45% 30.29 in 10.0 mi SSE 11.5 mph - N/A   Clear
1:55 AM 37.4 °F 30.3 °F 17.6 °F 45% 30.29 in 10.0 mi SSE 10.4 mph - N/A   Clear
2:15 AM 37.4 °F 30.3 °F 17.6 °F 45% 30.29 in 10.0 mi SSE 10.4 mph - N/A   Clear
2:35 AM 35.6 °F 28.0 °F 17.6 °F 48% 30.29 in 10.0 mi SSE 10.4 mph - N/A   Clear
2:55 AM 35.6 °F 28.0 °F 17.6 °F 48% 30.29 in 10.0 mi SSE 10.4 mph - N/A   Clear
3:15 AM 35.6 °F 27.5 °F 17.6 °F 48% 30.29 in 10.0 mi SSE 11.5 mph - N/A   Clear
3:35 AM 35.6 °F 27.5 °F 17.6 °F 48% 30.28 in 10.0 mi SSE 11.5 mph - N/A   Clear
3:55 AM 37.4 °F 29.8 °F 17.6 °F 45% 30.28 in 10.0 mi SSE 11.5 mph - N/A   Clear
4:15 AM 39.2 °F 32.0 °F 19.4 °F 45% 30.28 in 10.0 mi SSE 11.5 mph - N/A   Clear
4:35 AM 41.0 °F 34.3 °F 19.4 °F 42% 30.29 in 10.0 mi SSE 11.5 mph - N/A   Clear
4:55 AM 41.0 °F 34.3 °F 23.0 °F 49% 30.29 in 10.0 mi SSE 11.5 mph - N/A   Clear
5:15 AM 39.2 °F 32.0 °F 24.8 °F 56% 30.29 in 10.0 mi SSE 11.5 mph - N/A   Clear
5:35 AM 37.4 °F 29.8 °F 24.8 °F 60% 30.30 in 10.0 mi SSE 11.5 mph - N/A   Clear
5:55 AM 39.2 °F 32.0 °F 28.4 °F 65% 30.30 in 10.0 mi SSE 11.5 mph - N/A   Clear
6:15 AM 41.0 °F 34.7 °F 32.0 °F 70% 30.31 in 10.0 mi SSE 10.4 mph - N/A   Clear
6:35 AM 41.0 °F 34.7 °F 32.0 °F 70% 30.31 in 10.0 mi SSE 10.4 mph - N/A   Clear
6:55 AM 42.8 °F 37.5 °F 33.8 °F 70% 30.31 in 10.0 mi SSE 9.2 mph - N/A   Clear
7:15 AM 42.8 °F 41.1 °F 33.8 °F 70% 30.32 in 10.0 mi East 3.5 mph - N/A   Clear
7:35 AM 44.6 °F 42.2 °F 35.6 °F 71% 30.33 in 10.0 mi East 4.6 mph - N/A   Clear
7:55 AM 48.2 °F - 35.6 °F 62% 30.33 in 10.0 mi ESE 5.8 mph - N/A   Clear
8:15 AM 48.2 °F - 37.4 °F 66% 30.34 in 10.0 mi ESE 3.5 mph - N/A   Clear
8:35 AM 50.0 °F - 37.4 °F 62% 30.35 in 10.0 mi SE 3.5 mph - N/A   Clear
8:55 AM 51.8 °F - 37.4 °F 58% 30.35 in 10.0 mi NE 3.5 mph - N/A   Clear
9:15 AM 53.6 °F - 35.6 °F 51% 30.35 in 10.0 mi Calm Calm - N/A   Clear
9:35 AM 57.2 °F - 32.0 °F 38% 30.35 in 10.0 mi East 3.5 mph - N/A   Clear
9:55 AM 57.2 °F - 32.0 °F 38% 30.35 in 10.0 mi Calm Calm - N/A   Clear
10:15 AM 59.0 °F - 28.4 °F 31% 30.35 in 10.0 mi NNW 3.5 mph - N/A   Clear
10:35 AM 59.0 °F - 26.6 °F 29% 30.35 in 10.0 mi WNW 5.8 mph - N/A   Clear
10:55 AM 60.8 °F - 26.6 °F 27% 30.35 in 10.0 mi NW 9.2 mph - N/A   Clear
11:15 AM 60.8 °F - 24.8 °F 25% 30.35 in 10.0 mi NNW 6.9 mph - N/A   Clear
11:35 AM 62.6 °F - 26.6 °F 26% 30.35 in 10.0 mi NNW 8.1 mph - N/A   Clear
11:55 AM 62.6 °F - 23.0 °F 22% 30.34 in 10.0 mi WNW 5.8 mph 16.1 mph N/A   Clear
12:15 PM 62.6 °F - 24.8 °F 24% 30.34 in 10.0 mi North 3.5 mph - N/A   Clear
12:35 PM 62.6 °F - 21.2 °F 20% 30.33 in 10.0 mi North 6.9 mph - N/A   Clear
12:55 PM 64.4 °F - 21.2 °F 19% 30.33 in 10.0 mi WNW 3.5 mph - N/A   Clear
1:15 PM 62.6 °F - 19.4 °F 19% 30.32 in 10.0 mi Calm Calm - N/A   Clear
1:35 PM 64.4 °F - 21.2 °F 19% 30.32 in 10.0 mi WNW 10.4 mph 18.4 mph N/A   Clear
1:55 PM 64.4 °F - 19.4 °F 18% 30.31 in 10.0 mi WNW 9.2 mph - N/A   Clear
2:15 PM 64.4 °F - 24.8 °F 22% 30.31 in 10.0 mi NW 10.4 mph - N/A   Scattered Clouds
2:35 PM 64.4 °F - 23.0 °F 21% 30.31 in 10.0 mi WNW 8.1 mph - N/A   Partly Cloudy
2:55 PM 64.4 °F - 21.2 °F 19% 30.31 in 10.0 mi West 4.6 mph - N/A   Clear
3:15 PM 64.4 °F - 23.0 °F 21% 30.32 in 10.0 mi NNW 8.1 mph - N/A   Partly Cloudy
3:35 PM 62.6 °F - 24.8 °F 24% 30.32 in 10.0 mi WNW 10.4 mph - N/A   Clear
3:55 PM 62.6 °F - 26.6 °F 26% 30.32 in 10.0 mi NW 12.7 mph - N/A   Scattered Clouds
4:15 PM 62.6 °F - 28.4 °F 27% 30.33 in 10.0 mi North 10.4 mph - N/A   Partly Cloudy
4:35 PM 60.8 °F - 26.6 °F 27% 30.33 in 10.0 mi North 5.8 mph - N/A   Clear
4:55 PM 59.0 °F - 26.6 °F 29% 30.33 in 10.0 mi North 9.2 mph - N/A   Clear
5:15 PM 59.0 °F - 26.6 °F 29% 30.33 in 10.0 mi NNW 8.1 mph - N/A   Clear
5:35 PM 57.2 °F - 23.0 °F 27% 30.33 in 10.0 mi NNW 6.9 mph - N/A   Clear
5:55 PM 53.6 °F - 23.0 °F 30% 30.34 in 10.0 mi NNW 5.8 mph - N/A   Clear
6:15 PM 51.8 °F - 23.0 °F 33% 30.35 in 10.0 mi North 4.6 mph - N/A   Clear
6:35 PM 51.8 °F - 23.0 °F 33% 30.36 in 10.0 mi Calm Calm - N/A   Clear
6:55 PM 51.8 °F - 23.0 °F 33% 30.36 in 10.0 mi Calm Calm - N/A   Clear
7:15 PM 46.4 °F - 23.0 °F 40% 30.36 in 10.0 mi Calm Calm - N/A   Clear
7:35 PM 42.8 °F 41.1 °F 23.0 °F 46% 30.37 in 10.0 mi SE 3.5 mph - N/A   Clear
7:55 PM 44.6 °F 42.2 °F 23.0 °F 43% 30.37 in 10.0 mi SE 4.6 mph - N/A   Clear
8:15 PM 41.0 °F 38.0 °F 23.0 °F 49% 30.38 in 10.0 mi SE 4.6 mph - N/A   Clear
8:35 PM 39.2 °F 35.9 °F 23.0 °F 52% 30.38 in 10.0 mi ESE 4.6 mph - N/A   Clear
8:55 PM 39.2 °F 37.0 °F 23.0 °F 52% 30.38 in 10.0 mi SE 3.5 mph - N/A   Clear
9:15 PM 39.2 °F 35.9 °F 23.0 °F 52% 30.38 in 10.0 mi ESE 4.6 mph - N/A   Clear
9:35 PM 37.4 °F 34.9 °F 23.0 °F 56% 30.39 in 10.0 mi SE 3.5 mph - N/A   Clear
9:55 PM 37.4 °F 33.8 °F 23.0 °F 56% 30.39 in 10.0 mi SE 4.6 mph - N/A   Clear
10:15 PM 39.2 °F 35.9 °F 24.8 °F 56% 30.39 in 10.0 mi SE 4.6 mph - N/A   Clear
10:35 PM 39.2 °F 35.9 °F 26.6 °F 61% 30.39 in 10.0 mi SE 4.6 mph - N/A   Clear
10:55 PM 39.2 °F 37.0 °F 26.6 °F 61% 30.39 in 10.0 mi SE 3.5 mph - N/A   Clear
11:15 PM 35.6 °F 30.7 °F 24.8 °F 65% 30.39 in 10.0 mi SSE 5.8 mph - N/A   Clear
11:35 PM 37.4 °F 32.1 °F 24.8 °F 60% 30.39 in 10.0 mi SSE 6.9 mph - N/A   Clear
11:55 PM 35.6 °F 29.2 °F 24.8 °F 65% 30.38 in 10.0 mi SSE 8.1 mph - N/A   Clear